• In Hungary
  • List of Countries
  • For 7 days
  • Water Temperature
  • Satellite Maps
  • Weather Map
  • News
  • Weather Widgets
  • user-avatar
    Login

    Hourly Weather Elbasan

    Today, 23 October, Tuesday

    Time Temperature Precipitation Wind Pressure Humidity
    00:00 +13°C° 1.5 mm 4 mps 735 mmHg 82%
    01:00 +14°C° 0 mm 3 mps 735 mmHg 82%
    02:00 +13°C° 0.2 mm 3 mps 735 mmHg 82%
    03:00 +13°C° 0.2 mm 3 mps 735 mmHg 82%
    04:00 +13°C° 0.2 mm 3 mps 735 mmHg 82%
    05:00 +13°C° 0.1 mm 3 mps 735 mmHg 81%
    06:00 +13°C° 0.1 mm 3 mps 735 mmHg 80%
    07:00 +14°C° 0 mm 4 mps 735 mmHg 79%
    08:00 +15°C° 0 mm 4 mps 735 mmHg 73%
    09:00 +17°C° 0 mm 4 mps 735 mmHg 67%
    10:00 +19°C° 0 mm 4 mps 736 mmHg 61%
    11:00 +19°C° 0 mm 4 mps 735 mmHg 57%
    12:00 +20°C° 0 mm 4 mps 735 mmHg 54%
    13:00 +21°C° 0 mm 3 mps 735 mmHg 51%
    14:00 +20°C° 0 mm 3 mps 735 mmHg 53%
    15:00 +20°C° 0 mm 3 mps 734 mmHg 54%
    16:00 +19°C° 0 mm 3 mps 734 mmHg 56%
    17:00 +18°C° 0 mm 3 mps 734 mmHg 61%
    18:00 +16°C° 0 mm 3 mps 734 mmHg 66%
    19:00 +14°C° 0 mm 3 mps 734 mmHg 70%
    20:00 +14°C° 0 mm 2 mps 734 mmHg 72%
    21:00 +14°C° 0 mm 2 mps 734 mmHg 74%
    22:00 +14°C° 0 mm 2 mps 734 mmHg 76%
    23:00 +13°C° 0 mm 2 mps 734 mmHg 76%

    Tomorrow, 24 October, Wednesday

    Time Temperature Precipitation Wind Pressure Humidity
    00:00 +13°C° 0 mm 2 mps 734 mmHg 77%
    01:00 +13°C° 0 mm 1 mps 733 mmHg 77%
    02:00 +12°C° 0 mm 1 mps 733 mmHg 77%
    03:00 +12°C° 0 mm 1 mps 733 mmHg 77%
    04:00 +12°C° 0 mm 1 mps 732 mmHg 77%
    05:00 +13°C° 0 mm 1 mps 732 mmHg 75%
    06:00 +13°C° 0 mm 1 mps 732 mmHg 73%
    07:00 +13°C° 0 mm 1 mps 732 mmHg 71%
    08:00 +15°C° 0 mm 1 mps 732 mmHg 62%
    09:00 +17°C° 0 mm 2 mps 732 mmHg 53%
    10:00 +19°C° 0 mm 2 mps 732 mmHg 44%
    11:00 +20°C° 0 mm 2 mps 731 mmHg 42%
    12:00 +21°C° 0 mm 3 mps 731 mmHg 40%
    13:00 +21°C° 0 mm 3 mps 731 mmHg 38%
    14:00 +21°C° 0 mm 3 mps 730 mmHg 41%
    15:00 +20°C° 0 mm 3 mps 730 mmHg 45%
    16:00 +19°C° 0 mm 3 mps 730 mmHg 49%
    17:00 +18°C° 0 mm 3 mps 730 mmHg 54%
    18:00 +16°C° 0 mm 2 mps 730 mmHg 60%
    19:00 +15°C° 0 mm 2 mps 730 mmHg 65%
    20:00 +15°C° 0 mm 2 mps 731 mmHg 69%
    21:00 +14°C° 0 mm 2 mps 731 mmHg 72%
    22:00 +14°C° 0 mm 2 mps 732 mmHg 76%
    23:00 +14°C° 0 mm 2 mps 732 mmHg 80%

    Day after tomorrow, 25 October, Thursday

    Time Temperature Precipitation Wind Pressure Humidity
    00:00 +14°C° 0 mm 2 mps 732 mmHg 84%
    01:00 +13°C° 0 mm 2 mps 733 mmHg 87%
    02:00 +13°C° 0 mm 2 mps 733 mmHg 87%
    03:00 +11°C° 0 mm 3 mps 733 mmHg 86%
    04:00 +11°C° 0 mm 3 mps 734 mmHg 85%
    05:00 +11°C° 0 mm 3 mps 735 mmHg 81%
    06:00 +10°C° 0 mm 3 mps 735 mmHg 76%
    07:00 +10°C° 0 mm 3 mps 736 mmHg 71%
    08:00 +12°C° 0 mm 3 mps 736 mmHg 60%
    09:00 +14°C° 0 mm 3 mps 737 mmHg 49%
    10:00 +17°C° 0 mm 3 mps 737 mmHg 38%
    11:00 +17°C° 0 mm 3 mps 737 mmHg 34%
    12:00 +18°C° 0 mm 3 mps 737 mmHg 30%
    13:00 +19°C° 0 mm 3 mps 736 mmHg 26%
    14:00 +19°C° 0 mm 3 mps 736 mmHg 29%
    15:00 +18°C° 0 mm 3 mps 736 mmHg 32%
    16:00 +18°C° 0 mm 3 mps 736 mmHg 35%
    17:00 +16°C° 0 mm 2 mps 736 mmHg 38%
    18:00 +14°C° 0 mm 2 mps 737 mmHg 41%
    19:00 +13°C° 0 mm 1 mps 737 mmHg 44%
    20:00 +13°C° 0 mm 1 mps 737 mmHg 43%
    21:00 +13°C° 0 mm 1 mps 737 mmHg 43%
    22:00 +12°C° 0 mm 1 mps 737 mmHg 43%
    23:00 +13°C° 0 mm 1 mps 737 mmHg 43%

    26 October, Friday

    Time Temperature Precipitation Wind Pressure Humidity
    00:00 +13°C° 0 mm 1 mps 737 mmHg 42%
    01:00 +13°C° 0 mm 1 mps 737 mmHg 42%
    02:00 +13°C° 0 mm 1 mps 737 mmHg 42%
    03:00 +13°C° 0 mm 1 mps 737 mmHg 42%
    04:00 +13°C° 0 mm 1 mps 736 mmHg 41%
    05:00 +13°C° 0 mm 1 mps 737 mmHg 43%
    06:00 +14°C° 0 mm 2 mps 737 mmHg 45%
    07:00 +14°C° 0 mm 2 mps 737 mmHg 47%
    08:00 +16°C° 0 mm 2 mps 737 mmHg 44%
    09:00 +18°C° 0 mm 2 mps 737 mmHg 41%
    10:00 +21°C° 0 mm 2 mps 737 mmHg 37%
    11:00 +21°C° 0 mm 3 mps 737 mmHg 37%
    12:00 +22°C° 0 mm 3 mps 737 mmHg 36%
    13:00 +22°C° 0 mm 3 mps 736 mmHg 36%
    14:00 +22°C° 0 mm 3 mps 736 mmHg 40%
    15:00 +21°C° 0 mm 3 mps 736 mmHg 44%
    16:00 +20°C° 0 mm 3 mps 736 mmHg 48%
    17:00 +19°C° 0 mm 2 mps 736 mmHg 53%
    18:00 +17°C° 0 mm 2 mps 737 mmHg 59%
    19:00 +15°C° 0 mm 2 mps 737 mmHg 65%
    20:00 +15°C° 0 mm 2 mps 737 mmHg 67%
    21:00 +15°C° 0 mm 2 mps 737 mmHg 69%
    22:00 +14°C° 0 mm 3 mps 737 mmHg 71%
    23:00 +13°C° 0 mm 3 mps 737 mmHg 73%

    27 October, Saturday

    Time Temperature Precipitation Wind Pressure Humidity
    00:00 +13°C° 0 mm 3 mps 737 mmHg 75%
    01:00 +13°C° 0 mm 3 mps 737 mmHg 77%
    02:00 +13°C° 0 mm 3 mps 736 mmHg 79%
    03:00 +13°C° 0 mm 3 mps 736 mmHg 81%
    04:00 +13°C° 0 mm 3 mps 736 mmHg 82%
    05:00 +14°C° 0 mm 3 mps 736 mmHg 83%
    06:00 +14°C° 0 mm 3 mps 736 mmHg 83%
    07:00 +14°C° 0 mm 3 mps 736 mmHg 84%
    08:00 +17°C° 0 mm 3 mps 736 mmHg 77%
    09:00 +19°C° 0 mm 3 mps 736 mmHg 71%
    10:00 +21°C° 0 mm 4 mps 736 mmHg 65%
    11:00 +22°C° 0 mm 4 mps 736 mmHg 63%
    12:00 +22°C° 0 mm 4 mps 736 mmHg 61%
    13:00 +23°C° 0 mm 5 mps 735 mmHg 59%
    14:00 +22°C° 0 mm 5 mps 735 mmHg 62%
    15:00 +22°C° 0 mm 4 mps 735 mmHg 65%
    16:00 +21°C° 0 mm 4 mps 735 mmHg 67%
    17:00 +20°C° 0 mm 4 mps 735 mmHg 73%
    18:00 +18°C° 0 mm 4 mps 735 mmHg 79%
    19:00 +17°C° 0 mm 4 mps 735 mmHg 86%
    20:00 +17°C° 0 mm 4 mps 735 mmHg 86%
    21:00 +17°C° 0 mm 4 mps 735 mmHg 86%
    22:00 +15°C° 0 mm 4 mps 735 mmHg 87%
    23:00 +15°C° 0 mm 4 mps 735 mmHg 87%

    28 October, Sunday

    Time Temperature Precipitation Wind Pressure Humidity
    00:00 +15°C° 0 mm 4 mps 735 mmHg 87%
    01:00 +15°C° 0 mm 4 mps 735 mmHg 88%
    02:00 +15°C° 0 mm 4 mps 735 mmHg 88%
    03:00 +14°C° 0 mm 4 mps 735 mmHg 88%
    04:00 +14°C° 0 mm 4 mps 734 mmHg 88%
    05:00 +14°C° 0 mm 4 mps 735 mmHg 86%
    06:00 +14°C° 0 mm 4 mps 735 mmHg 85%
    07:00 +14°C° 0 mm 4 mps 735 mmHg 83%
    08:00 +18°C° 0 mm 4 mps 735 mmHg 70%
    09:00 +20°C° 0 mm 4 mps 735 mmHg 57%
    10:00 +22°C° 0 mm 4 mps 735 mmHg 44%
    11:00 +23°C° 0 mm 5 mps 734 mmHg 40%
    12:00 +25°C° 0 mm 5 mps 734 mmHg 35%
    13:00 +26°C° 0 mm 5 mps 733 mmHg 30%
    14:00 +23°C° 0 mm 5 mps 733 mmHg 35%
    15:00 +22°C° 0 mm 5 mps 733 mmHg 39%
    16:00 +21°C° 0 mm 4 mps 732 mmHg 44%
    17:00 +20°C° 0 mm 4 mps 732 mmHg 47%
    18:00 +18°C° 0 mm 4 mps 732 mmHg 50%
    19:00 +17°C° 0 mm 4 mps 732 mmHg 53%
    20:00 +17°C° 0 mm 4 mps 732 mmHg 51%
    21:00 +17°C° 0 mm 4 mps 732 mmHg 50%
    22:00 +17°C° 0 mm 4 mps 732 mmHg 48%
    23:00 +17°C° 0 mm 4 mps 732 mmHg 51%

    29 October, Monday

    Time Temperature Precipitation Wind Pressure Humidity
    00:00 +17°C° 0 mm 4 mps 731 mmHg 54%
    01:00 +17°C° 0 mm 4 mps 731 mmHg 57%
    02:00 +17°C° 0 mm 4 mps 731 mmHg 58%
    03:00 +17°C° 0 mm 4 mps 730 mmHg 59%
    04:00 +17°C° 0 mm 4 mps 730 mmHg 60%
    05:00 +17°C° 0.5 mm 4 mps 730 mmHg 62%
    06:00 +16°C° 0.5 mm 5 mps 729 mmHg 63%
    07:00 +16°C° 0.5 mm 5 mps 729 mmHg 65%
    08:00 +17°C° 0.6 mm 6 mps 729 mmHg 64%
    09:00 +18°C° 0.6 mm 7 mps 729 mmHg 63%
    10:00 +20°C° 0.6 mm 7 mps 729 mmHg 62%
    11:00 +19°C° 3.2 mm 6 mps 729 mmHg 68%
    12:00 +19°C° 3.2 mm 6 mps 729 mmHg 75%
    13:00 +17°C° 3.2 mm 5 mps 728 mmHg 82%
    14:00 +18°C° 2.4 mm 4 mps 728 mmHg 83%
    15:00 +17°C° 2.4 mm 4 mps 728 mmHg 84%
    16:00 +17°C° 2.4 mm 4 mps 728 mmHg 85%
    17:00 +17°C° 2 mm 4 mps 728 mmHg 86%
    18:00 +17°C° 2 mm 4 mps 728 mmHg 86%
    19:00 +17°C° 2 mm 4 mps 728 mmHg 87%
    20:00 +17°C° 1.9 mm 4 mps 728 mmHg 87%
    21:00 +17°C° 1.9 mm 4 mps 728 mmHg 87%
    22:00 +16°C° 1.9 mm 5 mps 728 mmHg 87%
    23:00 +17°C° 1.2 mm 4 mps 728 mmHg 88%
    Show more